Wind_Speed
14 14 14 13 12 11 10 9 7 5 3 2 3 3 2 3 2 4 4 5 6 7 8 9 9 11 13 13 12 12 14 14 15
12 14 14 13 14 13 12 11 9 8 6 5 6 6 5 4 3 3 4 3 4 5 6 6 7 10 12 11 10 11 13 13 15
11 13 15 15 14 14 13 12 11 10 9 8 8 8 7 6 5 4 4 1 2 3 4 5 7 9 10 9 9 11 12 12 14
12 11 14 15 16 15 15 14 14 13 12 10 10 10 10 8 8 5 5 3 3 1 3 3 7 10 8 8 8 10 10 11 13
18 16 15 14 15 16 16 16 15 15 14 12 12 11 11 10 10 9 6 5 4 1 2 1 5 7 6 8 9 11 12 13 14
18 18 17 16 13 14 15 16 16 16 16 15 14 14 13 13 12 11 9 8 6 4 5 3 1 5 7 13 13 13 13 15 15
20 20 19 18 18 18 18 18 18 18 17 16 15 15 14 15 14 13 11 11 9 8 8 5 2 2 8 17 17 13 14 16 18
25 24 24 23 22 21 19 18 17 17 18 17 16 15 16 16 16 15 13 13 12 11 9 6 4 2 8 15 15 13 17 18 20
28 27 26 25 24 22 20 20 19 19 19 18 17 17 16 17 17 16 15 16 15 14 12 9 6 1 8 14 13 15 17 19 17
31 30 29 26 25 24 24 23 22 22 21 21 20 19 18 18 18 17 17 18 17 16 14 11 8 7 11 11 13 15 15 16 20
32 31 31 28 28 27 25 24 24 23 23 23 24 22 21 20 20 19 20 22 20 19 18 16 13 14 15 11 14 14 15 16 18
33 32 31 28 28 27 28 28 28 27 27 27 27 26 25 24 22 21 22 25 24 23 22 20 17 19 17 18 18 17 17 17 17
32 31 32 30 30 31 31 30 30 30 30 30 30 28 27 27 26 24 25 27 29 27 26 24 21 24 20 23 25 16 17 19 20
34 34 34 33 33 34 33 33 32 32 32 32 32 31 29 28 29 28 27 30 33 31 30 28 26 27 25 27 24 16 17 20 22
34 34 34 33 33 34 34 35 35 36 34 34 34 33 31 31 31 31 30 32 35 35 34 33 31 30 27 25 27 23 18 20 23
35 34 36 35 36 37 37 38 37 35 36 36 36 35 33 33 32 34 33 34 37 38 37 37 34 33 35 30 25 28 26 22 23
38 37 37 38 39 40 39 37 36 37 37 38 40 36 35 35 35 36 37 36 38 40 40 39 37 37 40 37 30 33 31 27 28
39 40 40 40 38 36 36 34 32 32 34 35 36 34 36 40 39 38 39 39 40 42 42 42 40 41 44 38 34 40 37 37 35
42 43 41 39 37 35 35 36 35 36 36 37 36 36 37 39 40 41 41 41 42 43 44 43 43 41 45 48 38 40 42 42 39
41 41 40 38 38 38 38 38 39 39 37 37 38 37 39 37 40 43 44 43 42 43 45 45 45 45 45 50 51 40 41 45 46
Wind_Direction
192 190 186 184 185 187 194 199 208 217 222 274 317 333 360 12 25 32 15 27 52 60 60 51 45 35 23 26 32 39 44 42 35
200 198 197 197 195 199 208 214 222 235 253 283 302 313 331 334 328 347 360 17 67 66 58 56 51 32 19 19 32 41 42 37 33
201 203 205 205 208 212 219 227 236 245 258 276 287 304 311 309 302 310 338 347 112 71 46 65 42 25 18 15 34 30 30 26 30
204 210 213 213 216 217 226 235 243 251 261 272 282 294 302 301 300 286 304 264 180 124 66 43 37 360 13 10 17 11 6 14 14
208 213 217 221 222 224 229 237 246 255 262 267 274 279 287 291 290 283 283 252 222 140 121 105 10 340 7 7 15 13 7 4 1
220 219 221 221 224 230 235 240 245 251 260 268 273 279 285 289 287 280 272 245 229 212 195 191 93 345 353 348 352 351 359 2 358
226 226 225 224 224 228 231 237 245 251 257 263 271 279 287 288 285 278 267 252 236 232 226 211 174 341 332 335 338 346 350 355 351
229 230 231 228 227 231 236 243 249 254 259 263 268 273 277 279 279 273 259 250 241 233 231 219 201 291 332 335 336 344 346 347 349
232 234 236 238 239 240 243 245 247 250 254 258 261 264 267 270 273 269 256 246 241 237 233 222 221 240 303 328 325 338 342 350 352
236 239 241 242 244 244 243 242 244 248 253 258 259 261 262 265 266 265 255 240 241 239 234 228 225 248 284 325 317 339 348 357 4
234 237 239 239 241 244 247 250 251 252 253 257 261 260 261 260 262 259 251 236 236 237 236 236 237 255 271 302 299 321 333 349 2
236 238 241 241 244 245 247 249 251 253 254 256 259 262 263 261 257 254 247 236 234 234 236 238 242 247 262 285 307 303 316 327 343
236 238 242 244 246 248 250 252 254 254 253 254 256 259 261 263 261 255 248 236 234 234 235 241 243 245 256 282 303 294 306 321 324
241 243 247 249 250 252 254 255 256 258 256 255 256 257 259 262 263 258 249 242 237 234 236 241 245 249 256 276 289 288 292 311 321
244 246 249 250 251 253 255 256 257 256 257 257 256 255 256 258 259 259 252 245 241 239 238 240 242 248 251 270 285 284 277 298 308
243 246 248 250 253 255 256 257 257 258 256 257 258 256 256 257 260 259 255 248 244 242 240 244 244 246 253 258 255 271 275 294 300
244 245 249 253 255 257 259 259 258 256 257 257 257 258 258 257 256 257 257 253 246 243 244 244 245 244 252 263 253 262 269 282 290
247 249 251 253 256 259 260 258 254 253 254 258 260 260 257 257 255 255 256 254 251 247 244 245 246 246 252 258 258 263 269 272 283
244 249 251 252 254 255 255 254 255 257 257 258 261 262 259 256 256 256 255 254 254 252 249 247 247 247 252 259 255 262 273 274 277
247 250 251 252 254 255 255 256 256 258 260 262 263 261 259 260 256 256 256 255 254 254 252 250 250 251 249 258 267 257 265 275 281
Height
5877 5880 5883 5885 5887 5889 5890 5890 5891 5892 5893 5894 5894 5894 5894 5894 5893 5893 5893 5892 5892 5892 5891 5890 5889 5888 5886 5884 5883 5882 5880 5878 5878
5877 5879 5881 5884 5886 5888 5889 5890 5891 5892 5893 5894 5894 5894 5894 5893 5893 5893 5893 5893 5893 5892 5892 5890 5888 5887 5886 5886 5884 5883 5881 5880 5878
5875 5877 5879 5882 5884 5887 5887 5888 5889 5890 5892 5893 5893 5893 5893 5893 5892 5892 5892 5892 5892 5892 5892 5891 5889 5887 5886 5885 5884 5884 5882 5881 5879
5873 5875 5877 5880 5882 5884 5885 5887 5887 5888 5889 5891 5892 5892 5892 5892 5892 5892 5891 5891 5891 5891 5891 5891 5889 5888 5885 5885 5885 5884 5883 5881 5880
5871 5873 5875 5877 5880 5881 5882 5884 5885 5886 5887 5888 5890 5890 5890 5891 5891 5891 5891 5891 5891 5891 5890 5889 5888 5888 5887 5885 5885 5885 5884 5881 5880
5868 5870 5872 5874 5877 5878 5880 5881 5882 5883 5884 5885 5887 5887 5888 5888 5889 5889 5889 5889 5890 5890 5889 5888 5888 5887 5887 5885 5884 5884 5883 5881 5879
5864 5866 5869 5871 5873 5874 5876 5877 5879 5880 5881 5882 5884 5885 5885 5886 5886 5887 5888 5889 5889 5888 5888 5887 5887 5886 5886 5885 5884 5883 5883 5880 5878
5860 5862 5864 5867 5869 5871 5873 5874 5876 5876 5877 5879 5880 5881 5882 5882 5883 5884 5885 5886 5887 5887 5887 5886 5886 5885 5885 5884 5882 5883 5881 5880 5877
5854 5857 5859 5862 5865 5867 5869 5871 5872 5873 5873 5875 5876 5877 5878 5879 5880 5881 5883 5884 5884 5885 5885 5885 5884 5883 5883 5882 5881 5881 5880 5878 5875
5849 5852 5854 5858 5860 5863 5864 5866 5867 5868 5870 5871 5872 5873 5874 5875 5876 5877 5879 5881 5883 5884 5884 5883 5882 5881 5881 5881 5880 5880 5878 5876 5874
5844 5846 5848 5853 5855 5857 5860 5861 5863 5864 5866 5866 5867 5869 5870 5871 5872 5874 5875 5877 5879 5881 5882 5881 5880 5879 5878 5877 5877 5878 5876 5874 5872
5838 5841 5843 5847 5849 5851 5853 5855 5857 5859 5861 5862 5862 5864 5865 5866 5868 5869 5871 5873 5875 5876 5878 5878 5878 5876 5875 5872 5874 5874 5873 5871 5870
5832 5834 5837 5840 5843 5845 5847 5849 5851 5853 5854 5856 5857 5858 5860 5861 5863 5864 5866 5868 5870 5872 5873 5874 5874 5872 5873 5870 5870 5871 5869 5868 5867
5825 5827 5830 5834 5836 5838 5840 5841 5844 5846 5848 5849 5851 5852 5854 5856 5857 5859 5861 5862 5863 5866 5868 5868 5870 5868 5868 5867 5865 5865 5865 5863 5862
5817 5820 5823 5826 5828 5830 5832 5834 5836 5839 5841 5842 5843 5845 5847 5849 5851 5852 5854 5855 5857 5860 5862 5862 5863 5863 5863 5863 5862 5861 5859 5859 5857
5810 5813 5816 5818 5821 5822 5825 5827 5829 5831 5833 5834 5835 5837 5840 5842 5844 5846 5847 5849 5850 5853 5855 5856 5857 5856 5856 5856 5857 5855 5855 5853 5852
5802 5805 5808 5810 5813 5815 5817 5819 5821 5823 5825 5826 5827 5831 5833 5835 5836 5838 5839 5841 5843 5845 5847 5849 5849 5850 5850 5850 5850 5849 5849 5848 5846
5793 5796 5798 5801 5804 5806 5808 5811 5813 5814 5816 5818 5820 5823 5825 5825 5828 5830 5831 5833 5834 5836 5838 5840 5842 5842 5843 5842 5843 5842 5842 5842 5840
5784 5786 5789 5793 5795 5798 5800 5802 5804 5806 5809 5810 5812 5814 5816 5817 5820 5821 5822 5824 5825 5827 5830 5832 5834 5835 5835 5834 5834 5835 5835 5835 5834
5776 5778 5781 5785 5788 5790 5792 5795 5796 5797 5800 5802 5803 5805 5807 5809 5811 5811 5812 5814 5816 5818 5821 5823 5825 5826 5826 5825 5824 5825 5827 5826 5825